Location: Seattle
(47.6064°N, 122.3308°W)
Time: 08:23:08
(UTC-07:00)

STRAND 1 - Pass Details

Date: 02 April 2023
Orbit: 767 x 779 km, 98.4° (Epoch: 02 June)

Event Time Altitude Azimuth Distance (km) Brightness Sun altitude
Rises 05:36:14 0° 123° (ESE) 3,246 ? -12.2°
Reaches altitude 10° 05:39:00 10° 108° (ESE) 2,321 ? -11.8°
Maximum altitude 05:42:48 22° 60° (ENE) 1,667 ? -11.2°
Drops below altitude 10° 05:46:36 10° 12° (NNE) 2,327 ? -10.6°
Sets 05:49:23 0° 357° (N) 3,256 ? -10.1°
